Date String (YYYY-MM-DD hh:mm:ss) UTC,Instrument flags,absolute air pressure of the measurement (hPa),sample flow rate (lpm),inlet stack bypass flow (lpm),air temperature of the measurement (°C),ambient temperature measured by the external sensor (°C),aerosol sample conditioner tube jacket temperature (°C),OPC LED temperature (°C),internal box temperature (°C),relative humidity of the measurement (%),span deviation,mass concentration of particles derived from Lorenz-Mie calculation of OPC scattering (μg/m³),mass concentration of particles derived from Lorenz-Mie calculation of OPC scattering (μg/m³),mass concentration of particles derived from Lorenz-Mie calculation of OPC scattering (μg/m³)
DateTimeUTC,F1_M11,P_M11,Q1_M11,Q2_M11,T1_M11,T2_M11,T3_M11,T4_M11,T5_M11,U1_M11,ZSPAN_M11,X2_M11,X0_M11,X1_M11
2023-06-07 12:00:00,SystemResetWarning,0829.8,5.00,000.00,029.7,027.9,000.0,038.3,031.1,21.2,0000.0,0003.52,0006.07,0003.19
2023-06-07 12:01:00,SystemResetWarning,0829.8,5.00,000.00,029.7,027.9,000.0,038.3,031.1,21.2,0000.0,0003.52,0006.02,0003.19
2023-06-07 12:02:00,SystemResetWarning,0829.8,5.00,000.00,029.7,027.9,000.0,038.3,031.1,21.2,0000.0,0003.55,0006.14,0003.18
2023-06-07 12:03:00,SystemResetWarning,0829.8,5.00,000.00,029.7,027.9,000.0,038.3,031.1,21.2,0000.0,0003.57,0006.22,0003.18
2023-06-07 12:04:00,SystemResetWarning,0829.8,5.00,000.00,029.7,027.9,000.0,038.3,031.1,21.3,0000.0,0003.57,0006.29,0003.18
2023-06-07 12:05:00,SystemResetWarning,0829.9,5.00,000.00,029.7,027.9,000.0,038.3,031.1,21.3,0000.0,0003.56,0006.23,0003.17
2023-06-07 12:06:00,SystemResetWarning,0829.9,5.00,000.00,029.7,027.9,000.0,038.3,031.0,21.5,0000.0,0003.52,0006.01,0003.17
2023-06-07 12:07:00,SystemResetWarning,0830.0,5.00,000.00,029.7,027.9,000.0,038.3,031.1,21.3,0000.0,0003.50,0006.57,0003.16
2023-06-07 12:08:00,SystemResetWarning,0830.0,5.00,000.00,029.7,027.9,000.0,038.3,031.1,21.6,0000.0,0003.49,0007.31,0003.16
2023-06-07 12:09:00,SystemResetWarning,0830.0,5.01,000.00,029.7,027.9,000.0,038.3,031.0,21.5,0000.0,0003.51,0007.28,0003.16
2023-06-07 12:10:00,SystemResetWarning,0830.0,5.00,000.00,029.7,027.9,000.0,038.3,031.1,21.4,0000.0,0003.51,0007.07,0003.16
2023-06-07 12:11:00,SystemResetWarning,0830.0,5.00,000.00,029.7,027.9,000.0,038.3,031.1,21.4,0000.0,0003.50,0006.98,0003.15
2023-06-07 12:12:00,SystemResetWarning,0830.0,5.00,000.00,029.7,027.9,000.0,038.3,031.1,21.4,0000.0,0003.52,0007.08,0003.16
2023-06-07 12:13:00,SystemResetWarning,0830.0,5.00,000.00,029.7,027.9,000.0,038.3,031.1,21.4,0000.0,0003.54,0007.18,0003.16
2023-06-07 12:14:00,SystemResetWarning,0830.0,5.00,000.00,029.7,027.9,000.0,038.3,031.1,21.7,0000.0,0003.52,0007.07,0003.16
2023-06-07 12:15:00,SystemResetWarning,0830.0,5.00,000.00,029.7,027.9,000.0,038.3,031.1,21.5,0000.0,0003.50,0006.88,0003.16
2023-06-07 12:16:00,SystemResetWarning,0830.0,5.00,000.00,029.7,027.9,000.0,038.3,031.1,21.5,0000.0,0003.51,0006.86,0003.17
2023-06-07 12:17:00,SystemResetWarning,0830.0,5.00,000.00,029.7,027.9,000.0,038.3,031.1,21.7,0000.0,0003.52,0006.99,0003.17
2023-06-07 12:18:00,SystemResetWarning,0830.0,5.00,000.00,029.7,027.9,000.0,038.3,031.1,21.7,0000.0,0003.55,0006.51,0003.18
2023-06-07 12:19:00,SystemResetWarning,0829.9,5.00,000.00,029.7,027.9,000.0,038.3,031.1,21.8,0000.0,0003.57,0006.01,0003.19
2023-06-07 12:20:00,SystemResetWarning,0830.0,5.00,000.00,029.7,027.9,000.0,038.3,031.0,21.7,0000.0,0003.55,0005.95,0003.18
2023-06-07 12:21:00,SystemResetWarning,0829.9,4.99,000.00,029.7,027.9,000.0,038.3,031.1,21.7,0000.0,0003.56,0005.98,0003.19
2023-06-07 12:22:00,SystemResetWarning,0829.9,5.00,000.00,029.7,027.9,000.0,038.3,031.1,21.6,0000.0,0003.57,0006.02,0003.20
2023-06-07 12:23:00,SystemResetWarning,0830.0,5.00,000.00,029.7,027.9,000.0,038.3,031.1,21.7,0000.0,0003.55,0006.46,0003.20
2023-06-07 12:24:00,SystemResetWarning,0829.9,5.00,000.00,029.7,027.9,000.0,038.3,031.1,22.7,0000.0,0003.50,0006.58,0003.20
2023-06-07 12:25:00,SystemResetWarning,0830.0,5.00,000.00,029.7,027.9,000.0,038.3,031.1,22.3,0000.0,0003.51,0006.64,0003.21
2023-06-07 12:26:00,SystemResetWarning,0830.0,5.00,000.00,029.7,027.9,000.0,038.3,031.1,22.5,0000.0,0003.55,0006.87,0003.22
2023-06-07 12:27:00,SystemResetWarning,0830.0,5.01,000.00,029.7,027.9,000.0,038.3,031.1,22.1,0000.0,0003.54,0007.42,0003.22
2023-06-07 12:28:00,SystemResetWarning,0830.0,5.01,000.00,029.7,027.9,000.0,038.3,031.1,22.5,0000.0,0003.54,0007.43,0003.23
2023-06-07 12:29:00,SystemResetWarning,0830.0,5.01,000.00,029.7,027.9,000.0,038.3,031.1,22.4,0000.0,0003.54,0007.41,0003.23
2023-06-07 12:30:00,SystemResetWarning,0830.0,4.99,000.00,029.7,027.9,000.0,038.3,031.0,23.1,0000.0,0003.51,0007.12,0003.23
2023-06-07 12:31:00,SystemResetWarning,0830.0,5.00,000.00,029.6,027.9,000.0,038.2,031.1,22.7,0000.0,0003.52,0007.22,0003.25
2023-06-07 12:32:00,SystemResetWarning,0830.0,5.00,000.00,029.6,027.9,000.0,038.2,031.1,23.0,0000.0,0003.53,0007.49,0003.27
2023-06-07 12:33:00,SystemResetWarning,0830.0,5.00,000.00,029.6,027.9,000.0,038.2,031.1,23.8,0000.0,0003.56,0007.53,0003.28
2023-06-07 12:34:00,SystemResetWarning,0830.0,5.00,000.00,029.6,027.9,000.0,038.2,031.0,23.8,0000.0,0003.56,0007.12,0003.28
2023-06-07 12:35:00,SystemResetWarning,0830.0,5.00,000.00,029.6,027.9,000.0,038.2,031.0,23.6,0000.0,0003.57,0006.89,0003.29
2023-06-07 12:36:00,SystemResetWarning,0830.0,5.00,000.00,029.6,027.9,000.0,038.2,031.0,23.6,0000.0,0003.59,0006.93,0003.30
2023-06-07 12:37:00,SystemResetWarning,0830.1,5.00,000.00,029.6,027.9,000.0,038.2,031.0,23.2,0000.0,0003.59,0006.88,0003.31
2023-06-07 12:38:00,SystemResetWarning,0830.0,4.99,000.00,029.6,027.9,000.0,038.2,031.0,23.4,0000.0,0003.63,0006.25,0003.33
2023-06-07 12:39:00,SystemResetWarning,0830.1,5.00,000.00,029.6,027.9,000.0,038.3,031.1,23.9,0000.0,0003.66,0006.24,0003.35
2023-06-07 12:40:00,SystemResetWarning,0830.1,4.99,000.00,029.6,027.9,000.0,038.3,031.1,24.6,0000.0,0003.69,0006.49,0003.36
2023-06-07 12:41:00,SystemResetWarning,0830.1,5.00,000.00,029.6,027.9,000.0,038.3,031.1,24.3,0000.0,0003.72,0006.66,0003.37
2023-06-07 12:42:00,SystemResetWarning,0830.1,5.01,000.00,029.6,027.9,000.0,038.2,031.1,24.5,0000.0,0003.74,0006.45,0003.39
2023-06-07 12:43:00,SystemResetWarning,0830.1,5.00,000.00,029.6,027.9,000.0,038.3,031.1,24.5,0000.0,0003.75,0006.13,0003.39
2023-06-07 12:44:00,SystemResetWarning,0830.1,5.00,000.00,029.6,027.9,000.0,038.3,031.1,24.2,0000.0,0003.76,0006.23,0003.39
2023-06-07 12:45:00,SystemResetWarning,0830.1,5.01,000.00,029.6,027.9,000.0,038.3,031.1,23.8,0000.0,0003.80,0007.34,0003.40
2023-06-07 12:46:00,SystemResetWarning,0830.1,5.00,000.00,029.6,027.9,000.0,038.2,031.1,23.6,0000.0,0003.81,0007.77,0003.41
2023-06-07 12:47:00,SystemResetWarning,0830.1,5.00,000.00,029.7,027.9,000.0,038.3,031.1,23.5,0000.0,0003.82,0007.81,0003.41
2023-06-07 12:48:00,SystemResetWarning,0830.1,4.99,000.00,029.7,027.9,000.0,038.3,031.1,23.5,0000.0,0003.83,0007.87,0003.42
2023-06-07 12:49:00,SystemResetWarning,0830.1,5.00,000.00,029.7,027.9,000.0,038.3,031.1,23.5,0000.0,0003.81,0007.79,0003.42
2023-06-07 12:50:00,SystemResetWarning,0830.1,5.01,000.00,029.7,027.9,000.0,038.3,031.1,23.6,0000.0,0003.80,0007.73,0003.42
2023-06-07 12:51:00,SystemResetWarning,0830.1,5.00,000.00,029.7,027.9,000.0,038.3,031.1,23.6,0000.0,0003.81,0007.69,0003.43
2023-06-07 12:52:00,SystemResetWarning,0830.1,5.01,000.00,029.7,027.9,000.0,038.3,031.1,23.6,0000.0,0003.81,0008.07,0003.45
2023-06-07 12:53:00,SystemResetWarning,0830.1,5.00,000.00,029.7,028.0,000.0,038.3,031.1,23.6,0000.0,0003.80,0008.40,0003.45
2023-06-07 12:54:00,SystemResetWarning,0830.1,4.99,000.00,029.7,028.0,000.0,038.3,031.1,23.6,0000.0,0003.81,0008.42,0003.45
2023-06-07 12:55:00,SystemResetWarning,0830.1,4.99,000.00,029.7,028.0,000.0,038.3,031.1,23.6,0000.0,0003.84,0008.46,0003.46
2023-06-07 12:56:00,SystemResetWarning,0830.1,5.01,000.00,029.7,028.0,000.0,038.3,031.1,23.6,0000.0,0003.83,0007.90,0003.47
2023-06-07 12:57:00,SystemResetWarning,0830.0,5.00,000.00,029.7,028.0,000.0,038.3,031.1,23.9,0000.0,0003.86,0007.49,0003.49
2023-06-07 12:58:00,SystemResetWarning,0830.1,5.00,000.00,029.7,028.0,000.0,038.3,031.1,24.4,0000.0,0003.84,0007.49,0003.48
2023-06-07 12:59:00,SystemResetWarning,0830.1,5.00,000.00,029.7,027.9,000.0,038.3,031.0,24.8,0000.0,0003.84,0007.47,0003.48
